TimeEDT,TemperatureF,Dew PointF,Humidity,Sea Level PressureIn,VisibilityMPH,Wind Direction,Wind SpeedMPH,Gust SpeedMPH,PrecipitationIn,Events,Conditions,WindDirDegrees,DateUTC
12:53 AM,81.0,73.9,79,29.99,10.0,East,15.0,20.7,N/A,,Unknown,80,2013-09-17 04:53:00
1:53 AM,81.0,73.9,79,29.97,10.0,East,13.8,-,N/A,,Unknown,100,2013-09-17 05:53:00
2:53 AM,81.0,75.0,82,29.97,10.0,ESE,11.5,-,N/A,,Unknown,110,2013-09-17 06:53:00
3:53 AM,82.0,73.9,76,29.95,10.0,East,9.2,-,N/A,,Unknown,100,2013-09-17 07:53:00
4:53 AM,82.0,73.9,76,29.95,10.0,ESE,10.4,-,N/A,,Unknown,110,2013-09-17 08:53:00
5:53 AM,82.0,75.0,79,29.95,10.0,East,6.9,-,N/A,,Unknown,100,2013-09-17 09:53:00
6:53 AM,81.0,75.0,82,29.97,10.0,East,4.6,-,N/A,,Unknown,80,2013-09-17 10:53:00
7:53 AM,82.0,75.0,79,29.98,10.0,East,3.5,-,N/A,,Mostly Cloudy,90,2013-09-17 11:53:00
8:53 AM,82.0,72.0,71,30.01,10.0,North,6.9,-,N/A,,Mostly Cloudy,10,2013-09-17 12:53:00
9:53 AM,78.1,70.0,76,30.02,8.0,West,4.6,-,N/A,Rain,Light Rain,280,2013-09-17 13:53:00
10:53 AM,80.1,73.9,81,30.03,10.0,NNE,3.5,-,0.03,,Mostly Cloudy,30,2013-09-17 14:53:00
11:53 AM,84.9,73.9,69,30.04,10.0,Variable,5.8,-,N/A,,Mostly Cloudy,0,2013-09-17 15:53:00
12:53 PM,84.0,75.0,74,30.02,10.0,North,11.5,-,N/A,,Mostly Cloudy,360,2013-09-17 16:53:00
1:53 PM,81.0,73.9,79,30.00,10.0,NNE,11.5,-,N/A,,Mostly Cloudy,30,2013-09-17 17:53:00
2:53 PM,80.1,75.0,85,29.99,10.0,NNE,10.4,-,0.00,Rain,Light Rain,30,2013-09-17 18:53:00
3:53 PM,79.0,75.0,88,29.96,10.0,NE,13.8,-,0.01,Rain,Light Rain,40,2013-09-17 19:53:00
4:53 PM,80.1,73.0,79,29.95,10.0,ENE,13.8,-,0.00,,Clear,70,2013-09-17 20:53:00
5:53 PM,80.1,73.9,81,29.95,10.0,NE,12.7,-,N/A,,Overcast,50,2013-09-17 21:53:00
6:04 PM,80.6,73.4,79,29.94,10.0,NE,12.7,-,N/A,,Mostly Cloudy,40,2013-09-17 22:04:00
6:53 PM,80.1,73.9,81,29.93,10.0,ENE,12.7,-,0.00,,Scattered Clouds,60,2013-09-17 22:53:00
7:53 PM,81.0,72.0,74,29.95,10.0,ENE,12.7,-,N/A,,Partly Cloudy,70,2013-09-17 23:53:00
8:34 PM,80.6,73.4,79,29.96,10.0,ENE,10.4,-,N/A,,Mostly Cloudy,70,2013-09-18 00:34:00
8:42 PM,80.6,73.4,79,29.96,10.0,ENE,12.7,-,N/A,,Scattered Clouds,70,2013-09-18 00:42:00
8:53 PM,82.0,73.0,74,29.96,10.0,East,10.4,18.4,N/A,,Scattered Clouds,80,2013-09-18 00:53:00
9:53 PM,82.0,73.9,76,29.98,10.0,East,8.1,-,N/A,,Unknown,80,2013-09-18 01:53:00
10:50 PM,82.4,73.4,74,29.98,10.0,East,10.4,-,N/A,,Mostly Cloudy,90,2013-09-18 02:50:00
10:53 PM,82.0,73.9,76,29.98,10.0,East,9.2,-,N/A,,Mostly Cloudy,90,2013-09-18 02:53:00
11:26 PM,82.4,73.4,74,29.97,10.0,East,8.1,-,N/A,,Scattered Clouds,90,2013-09-18 03:26:00
11:35 PM,82.4,73.4,74,29.97,10.0,East,8.1,-,N/A,,Mostly Cloudy,80,2013-09-18 03:35:00
11:44 PM,82.4,73.4,74,29.97,10.0,East,8.1,-,N/A,,Scattered Clouds,80,2013-09-18 03:44:00
11:53 PM,82.0,73.0,74,29.98,10.0,East,9.2,-,N/A,,Scattered Clouds,90,2013-09-18 03:53:00